Weather History for KIBM - December, 2012

Change the Weather History Date:

Sunday, December 23, 2012

  Actual Average (KSNY) Record (KSNY)
Temperature  
Mean Temperature 33 °F 28 °F  
Max Temperature 48 °F 41 °F 68 °F (1964)
Min Temperature 18 °F 15 °F -36 °F (1989)
Degree Days  
Heating Degree Days 32 37  
Month to date heating degree days 832  
Since 1 July heating degree days 2254  
Cooling Degree Days 0 0  
Month to date cooling degree days 0  
Year to date cooling degree days 830  
Moisture  
Dew Point 12 °F    
Average Humidity 44    
Maximum Humidity 74    
Minimum Humidity 22    
Precipitation  
Precipitation 0.00 in 0.01 in 0.43 in (1965)
Month to date precipitation 0.43  
Year to date precipitation 18.43  
Sea Level Pressure  
Sea Level Pressure 29.88 in    
Wind  
Wind Speed 13 mph (WNW)    
Max Wind Speed 29 mph    
Max Gust Speed 36 mph    
Visibility 10 miles    
Events      
T = Trace of Precipitation, MM = Missing Value Source: NWS Daily Summary

Daily Weather History Graph

Daily Weather History Graph

Search for Another Location

Airport or City:

Trip Planner

Search our weather history database for the weather conditions in past years. The results will help you decide how hot, cold, wet, or windy it might be!

Date:

Astronomy

Dec. 23, 2012 Rise Set
Actual Time 8:17 AM CST 5:30 PM CST
Civil Twilight 7:46 AM CST 6:01 PM CST
Nautical Twilight 7:11 AM CST 6:36 PM CST
Astronomical Twilight 6:38 AM CST 7:10 PM CST
Moon 2:23 PM CST 4:01 AM CST
Length of Visible Light 10h 14m
Length of Day
9h 12m
Waxing Gibbous, 82% of the Moon is Illuminated
Dec 23
Waxing Gibbous
Dec 28
Full
Jan 4
Last Quarter
Jan 11
New
Jan 18
First Quarter

Hourly Weather History & Observations

Time (CST) Temp. Windchill Dew Point Humidity Pressure Visibility Wind Dir Wind Speed Gust Speed Precip Events Conditions
12:15 AM 26.8 °F 15.9 °F 12.9 °F 56% 29.88 in 10.0 mi SSW 12.7 mph - N/A   Clear
12:35 AM 29.1 °F 18.9 °F 12.6 °F 50% 29.87 in 10.0 mi South 12.7 mph - N/A   Clear
12:55 AM 31.1 °F 22.4 °F 12.0 °F 45% 29.85 in 10.0 mi South 10.4 mph - N/A   Clear
1:15 AM 29.7 °F 19.1 °F 12.6 °F 49% 29.84 in 10.0 mi SSW 13.8 mph - N/A   Clear
1:35 AM 31.8 °F 26.2 °F 11.5 °F 43% 29.84 in 10.0 mi SW 5.8 mph - N/A   Clear
1:55 AM 29.8 °F 20.9 °F 10.8 °F 45% 29.84 in 10.0 mi West 10.4 mph - N/A   Clear
2:15 AM 28.6 °F 19.9 °F 9.3 °F 44% 29.83 in 10.0 mi WSW 9.2 mph - N/A   Clear
2:35 AM 23.5 °F 13.0 °F 9.3 °F 55% 29.84 in 10.0 mi West 10.4 mph - N/A   Clear
2:55 AM 21.6 °F 10.6 °F 8.6 °F 57% 29.84 in 10.0 mi West 10.4 mph - N/A   Clear
3:15 AM 19.9 °F 9.3 °F 8.6 °F 61% 29.83 in 10.0 mi WNW 9.2 mph - N/A   Clear
3:35 AM 19.2 °F 5.3 °F 9.7 °F 66% 29.83 in 10.0 mi West 15.0 mph - N/A   Clear
3:55 AM 20.3 °F 10.6 °F 10.2 °F 65% 29.83 in 10.0 mi West 8.1 mph - N/A   Clear
4:15 AM 20.5 °F 10.0 °F 11.1 °F 67% 29.82 in 10.0 mi WNW 9.2 mph - N/A   Clear
4:35 AM 20.8 °F 11.2 °F 11.5 °F 67% 29.82 in 10.0 mi WNW 8.1 mph - N/A   Clear
4:55 AM 18.0 °F 7.7 °F 10.4 °F 72% 29.82 in 10.0 mi West 8.1 mph - N/A   Clear
5:15 AM 19.6 °F 6.8 °F 10.8 °F 69% 29.82 in 10.0 mi NW 12.7 mph 16.1 mph N/A   Clear
5:35 AM 21.0 °F 11.4 °F 10.9 °F 65% 29.83 in 10.0 mi WNW 8.1 mph 12.7 mph N/A   Clear
5:55 AM 19.0 °F 10.0 °F 9.9 °F 67% 29.83 in 10.0 mi West 6.9 mph - N/A   Clear
6:15 AM 22.3 °F 9.7 °F 9.9 °F 59% 29.84 in 10.0 mi WNW 13.8 mph - N/A   Clear
6:35 AM 30.2 °F 18.9 °F 6.6 °F 37% 29.84 in 10.0 mi WNW 16.1 mph - N/A   Clear
6:55 AM 32.9 °F 22.0 °F 5.9 °F 32% 29.84 in 10.0 mi WNW 17.3 mph - N/A   Clear
7:15 AM 32.9 °F 22.4 °F 5.5 °F 32% 29.86 in 10.0 mi West 16.1 mph - N/A   Clear
7:35 AM 32.0 °F 22.1 °F 5.5 °F 33% 29.86 in 10.0 mi WNW 13.8 mph - N/A   Clear
7:55 AM 32.0 °F 22.1 °F 5.9 °F 33% 29.86 in 10.0 mi West 13.8 mph - N/A   Clear
8:15 AM 31.1 °F 22.4 °F 5.9 °F 35% 29.87 in 10.0 mi WNW 10.4 mph - N/A   Clear
8:35 AM 31.1 °F 21.9 °F 6.8 °F 36% 29.88 in 10.0 mi WNW 11.5 mph - N/A   Clear
8:55 AM 31.8 °F 22.8 °F 8.6 °F 38% 29.88 in 10.0 mi WNW 11.5 mph - N/A   Clear
9:15 AM 35.2 °F 25.0 °F 10.6 °F 36% 29.89 in 10.0 mi WNW 17.3 mph - N/A   Clear
9:35 AM 38.3 °F 30.1 °F 12.2 °F 34% 29.90 in 10.0 mi WNW 13.8 mph - N/A   Clear
9:55 AM 42.3 °F 34.8 °F 14.5 °F 33% 29.91 in 10.0 mi WNW 15.0 mph 20.7 mph N/A   Clear
10:15 AM 43.7 °F 36.0 °F 14.9 °F 31% 29.91 in 10.0 mi WNW 17.3 mph 25.3 mph N/A   Clear
10:35 AM 43.7 °F 35.7 °F 14.9 °F 31% 29.92 in 10.0 mi WNW 18.4 mph 23.0 mph N/A   Clear
10:55 AM 43.7 °F 35.7 °F 15.3 °F 32% 29.92 in 10.0 mi WNW 18.4 mph 24.2 mph N/A   Clear
11:15 AM 44.2 °F 36.4 °F 15.3 °F 31% 29.91 in 10.0 mi West 18.4 mph 25.3 mph N/A   Clear
11:35 AM 44.8 °F 36.2 °F 14.7 °F 30% 29.91 in 10.0 mi West 23.0 mph 33.4 mph N/A   Clear
11:55 AM 46.2 °F 37.9 °F 13.8 °F 27% 29.91 in 10.0 mi West 24.2 mph 28.8 mph N/A   Clear
12:15 PM 46.8 °F - 10.9 °F 24% 29.90 in 10.0 mi WNW 28.8 mph 35.7 mph N/A   Clear
12:35 PM 46.9 °F - 11.5 °F 24% 29.90 in 10.0 mi WNW 26.5 mph 35.7 mph N/A   Clear
12:55 PM 47.1 °F - 11.7 °F 24% 29.90 in 10.0 mi WNW 16.1 mph 28.8 mph N/A   Clear
1:15 PM 48.2 °F - 10.8 °F 22% 29.90 in 10.0 mi NW 17.3 mph 25.3 mph N/A   Clear
1:35 PM 47.3 °F - 10.2 °F 22% 29.89 in 10.0 mi NW 20.7 mph 28.8 mph N/A   Clear
1:55 PM 46.8 °F - 11.3 °F 24% 29.89 in 10.0 mi WNW 24.2 mph 29.9 mph N/A   Clear
2:15 PM 47.8 °F - 11.5 °F 23% 29.89 in 10.0 mi NW 25.3 mph - N/A   Clear
2:35 PM 48.0 °F - 10.9 °F 22% 29.89 in 10.0 mi NNW 23.0 mph 32.2 mph N/A   Clear
2:55 PM 46.6 °F - 10.8 °F 23% 29.90 in 10.0 mi NW 21.9 mph 34.5 mph N/A   Clear
3:15 PM 46.4 °F 39.2 °F 10.9 °F 24% 29.90 in 10.0 mi NW 18.4 mph 27.6 mph N/A   Clear
3:35 PM 45.7 °F 37.6 °F 10.9 °F 24% 29.89 in 10.0 mi NW 21.9 mph 29.9 mph N/A   Clear
3:55 PM 45.0 °F 37.9 °F 11.1 °F 25% 29.90 in 10.0 mi NW 16.1 mph 27.6 mph N/A   Clear
4:15 PM 44.1 °F 35.9 °F 11.1 °F 26% 29.91 in 10.0 mi NW 19.6 mph 32.2 mph N/A   Clear
4:35 PM 43.0 °F 34.0 °F 11.8 °F 28% 29.91 in 10.0 mi NW 21.9 mph 32.2 mph N/A   Clear
4:55 PM 41.7 °F 32.3 °F 12.9 °F 31% 29.91 in 10.0 mi NW 21.9 mph 28.8 mph N/A   Clear
5:15 PM 39.9 °F 29.7 °F 12.4 °F 32% 29.91 in 10.0 mi NW 23.0 mph 32.2 mph N/A   Clear
5:35 PM 38.7 °F 28.8 °F 12.2 °F 34% 29.91 in 10.0 mi NW 19.6 mph 27.6 mph N/A   Clear
5:55 PM 38.3 °F 28.7 °F 12.2 °F 34% 29.92 in 10.0 mi NW 18.4 mph 25.3 mph N/A   Clear
6:15 PM 36.7 °F 28.0 °F 13.1 °F 38% 29.92 in 10.0 mi NW 13.8 mph 20.7 mph N/A   Clear
6:35 PM 34.3 °F 26.5 °F 13.8 °F 43% 29.94 in 10.0 mi NW 10.4 mph - N/A   Clear
6:55 PM 33.1 °F 23.9 °F 14.0 °F 46% 29.94 in 10.0 mi WNW 12.7 mph - N/A   Clear
7:15 PM 32.9 °F 24.1 °F 14.7 °F 47% 29.94 in 10.0 mi WNW 11.5 mph - N/A   Clear
7:35 PM 30.6 °F 21.8 °F 14.5 °F 51% 29.94 in 10.0 mi West 10.4 mph - N/A   Clear
7:55 PM 28.2 °F 19.5 °F 14.4 °F 56% 29.94 in 10.0 mi WNW 9.2 mph - N/A   Clear
8:15 PM 28.2 °F 19.5 °F 14.9 °F 57% 29.94 in 10.0 mi WNW 9.2 mph - N/A   Clear
8:55 PM 28.6 °F 19.9 °F 15.8 °F 59% 29.92 in 10.0 mi West 9.2 mph - N/A   Clear
9:15 PM 26.8 °F 18.5 °F 14.9 °F 61% 29.92 in 10.0 mi NW 8.1 mph - N/A   Clear
9:35 PM 26.8 °F 15.9 °F 15.3 °F 62% 29.91 in 10.0 mi North 12.7 mph - N/A   Clear
9:55 PM 25.7 °F 14.0 °F 15.3 °F 65% 29.89 in 10.0 mi North 13.8 mph - N/A   Clear
10:15 PM 27.0 °F 16.7 °F 16.3 °F 64% 29.89 in 10.0 mi North 11.5 mph - N/A   Clear
10:35 PM 27.5 °F 18.6 °F 15.6 °F 61% 29.90 in 10.0 mi North 9.2 mph - N/A   Clear
10:55 PM 24.1 °F 18.2 °F 14.7 °F 68% 29.91 in 10.0 mi SE 4.6 mph - N/A   Clear
11:15 PM 22.1 °F - 14.2 °F 72% 29.91 in 10.0 mi Calm Calm - N/A   Clear
11:35 PM 26.4 °F 22.4 °F 14.7 °F 61% 29.91 in 10.0 mi East 3.5 mph - N/A   Clear
11:55 PM 21.4 °F 13.8 °F 14.2 °F 74% 29.92 in 10.0 mi SSW 5.8 mph - N/A   Clear